www.pogodaiklimat.ru

Погода и климат >> Архив погоды >> Мексика >> Hermosillo


ПОГОДА в Hermosillo

  • Прогноз погоды в Hermosillo
  • Монитор погоды в Hermosillo
  • Климат города

АРХИВ ПОГОДЫ в Hermosillo

Время (UTC), дата Ветер
(напр.,м/с)
 
Видим.   Явления Облачность Т
(С)
Тd
(С)
f
(%)
Тe
(С)
Тes
(С)
Комфортность P
(гПа)
Po
(гПа)
Тmin
(С)
Tmax
(С)
R
(мм)
R24
(мм)
S
(см)
00 18.05 ЮЗ 2 12 км ясно +32.4 +6.4 20 +31 +35 жарко 1007.4 983.4 +13.0 +34.0
03 18.05 ЮЗ 2 12 км ясно +32.4 +6.4 20 +31 +31 жарко 1007.4 983.4 +13.0 +34.0
06 18.05 ЮЗ 3 8000 м ясно +26.8 -0.3 17 +25 +25 комфорт 1007.4 983.5
15 18.05 В 1 12 км ясно +20.0 +7.5 44 +22 +29 комфорт 1010.7 986.2
18 18.05 ЮЗ 2 12 км ясно +29.0 +9.0 29 +29 +48 жарко 1010.2 986.2 +16.0 +29.0
21 18.05 З 1 12 км ясно +31.4 +12.2 31 +32 +54 опасность
солнечного
удара
1008.1 984.3
00 19.05 ЮЗ 1 12 км ясно +31.0 +10.1 27 +35 +41 очень
душно
1006.7 983.0 +16.0 +32.5
03 19.05 З 3 8000 м 3/0
[Ci fib]
+26.8 +8.0 30 +27 +27 жарко 1007.6 983.8
06 19.05 З 3 8000 м ясно +23.4 +11.2 46 +26 +26 жарко 1009.0 985.2 +16.0 +32.5
15 19.05 СВ 1 12 км ясно +21.4 +11.5 53 +23 +30 комфорт 1010.2 985.9
21 19.05 ЮЗ 1 12 км ясно +34.6 +10.3 23 +34 +56 опасность
солнечного
удара
1006.7 983.0
00 20.05 ЮЗ 1 12 км ясно +36.4 +9.3 19 +35 +41 очень
жарко
1005.7 982.2 +17.5 +37.5
03 20.05 З 4 8000 м ясно +29.2 +4.5 21 +28 +28 жарко 1006.7 983.1
15 20.05 СВ 1 12 км ясно +25.0 +3.9 25 +24 +31 комфорт 1008.3 984.3
18 20.05 СВ 1 12 км ясно +33.6 +5.2 17 +31 +54 опасность
солнечного
удара
1007.6 984.0 +17.0 +33.6
18 21.05 З 3 12 км 3/0
[Ci fib]
+34.0 +6.6 18 +32 +47 жарко 1010.3 987.0 +18.0 +34.0
21 21.05 ЮЗ 4 12 км 5/0
[Ci fib]
+38.0 +4.2 12 +35 +46 очень
жарко
1007.0 983.9
15 22.05 В 1 12 км 1/0
[Ci fib]
+23.0 +7.1 36 +24 +30 комфорт 1011.6 987.4
18 22.05 ЮЗ 1 12 км 3/0
[Ci fib]
+35.0 +9.0 20 +33 +55 опасность
солнечного
удара
1010.9 987.3 +19.5 +35.0
21 22.05 СЗ 1 12 км ясно +40.6 +11.6 18 +40 +62 опасность
солнечного
удара
1008.4 985.0
00 23.05 ЮЗ 1 12 км ясно +42.2 +11.0 16 +41 +47 опасность
перегрева
1006.5 983.1 +19.5 +43.0
03 23.05 З 5 8000 м ясно +34.0 +6.0 18 +32 +32 жарко 1007.6 984.4
06 23.05 СЗ 1 8000 м ясно +29.2 +8.3 27 +29 +29 жарко 1009.2 986.0 +19.5 +43.0
12 23.05 СВ 3 8000 м ясно +23.0 +13.4 55 +26 +26 жарко 1010.2 986.0 +23.0 +43.0
15 23.05 В 1 12 км ясно +23.2 +6.9 35 +24 +31 комфорт 1011.8 987.5
18 23.05 З 1 12 км ясно +35.0 +7.5 18 +33 +56 опасность
солнечного
удара
1010.9 987.3 +21.5 +35.0
21 23.05 ЮЗ 1 12 км ясно +41.4 +10.6 16 +40 +62 опасность
солнечного
удара
1007.8 984.3
00 24.05 ЮЗ 1 12 км 1/0
[]
+42.0 +12.1 17 +41 +47 опасность
перегрева
1005.7 982.4 +21.5 +43.5
03 24.05 З 4 12 км ясно +35.6 +6.2 16 +33 +33 жарко 1006.3 983.0
06 24.05 З 3 8000 м ясно +30.2 +6.9 23 +29 +29 жарко 1007.5 984.1 +21.5 +43.5
12 24.05 В 3 8000 м 3/0
[Ci fib]
+22.2 +5.9 35 +23 +23 комфорт 1007.6 983.4 +22.2 +43.5
15 24.05 В 1 12 км ясно +24.0 +10.8 43 +25 +32 комфорт 1009.0 985.0
18 24.05 ЮЗ 1 12 км ясно +36.4 +11.3 22 +36 +59 опасность
солнечного
удара
1007.7 984.0 +21.0 +36.4

 

Местоположение метеостанции Hermosillo (Мексика): широта 29.09 долгота -111.05 высота над уровнем моря 191 м.

В архиве по умолчанию представлена погода в Hermosillo за последнюю неделю. Архивные данные за месяц целиком и за предыдущие месяцы, начиная с января 2011 года, Вы можете получить, выбрав интересующий диапазон дат из раскрывающегося списка и нажав кнопку "Ввод!".

Внимание! Время в таблицах - всемирное. Для получения местного времени необходимо прибавить поправку, которая в Hermosillo равна -7 ч.

Смотрите также архив погоды в соседних городах и на ближайших метеорологических станциях:

Погода в Hermosillo la Magna (Мексика) (10 км)
Погода в Guaymas Upper Air Site (Мексика) (131 км)
Погода в Empalme (Мексика) (131 км)
Погода в Pilares de Nacoz (Мексика) (194 км)
Погода в Altar Son (Мексика) (196 км)
Погода в Ciudad Obregon (Мексика) (224 км)
Погода в Santa Rosalia (Мексика) (233 км)
Погода в Temosachic (Мексика) (316 км)
Погода в Nueva Casas Grandes (Мексика) (336 км)
Погода в Loreto (Мексика) (342 км)

Пояснения к столбцам:

Ветер - указаны скорость ветра в м/с - средняя за 10 мин, порывы в срок и между сроками (в фигурных скобках) и направление, откуда дует ветер: С - северный, СВ - северо-восточный, В - восточный, ЮВ - юго-восточный, Ю - южный, ЮЗ - юго-западный, З - западный, СЗ - северо-западный.
Видимость - горизонтальная дальность видимости в метрах или километрах. При видимости от 1 до 10 км при отсутствии осадков обычно наблюдается дымка, при ухудшении видимости до 1 км и менее - туман. В сухую погоду видимость может ухудшаться дымом, пылью или мглою.
Явления - указаны атмосферные явления, наблюдавшиеся в срок или в последний час перед сроком; фигурными скобками обозначены явления, наблюдавшиеся между сроками (за 1-3 часа до срока); квадратными скобками обозначены град или гололедные отложения с указанием их диаметра в мм.
Облачность - указаны через наклонную черту общая и нижняя облачность в баллах и высота нижней границы облаков в метрах; квадратными скобками обозначены формы облаков: Ci - перистые, Cs - перисто-слоистые, Cc - перисто-кучевые, Ac - высококучевые, As - высокослоистые, Sc - слоисто-кучевые, Ns - слоисто-дождевые, Cu - кучевые, Cb - кучево-дождевые. Подробнее классификацию облаков см. в Атласе облаков (PDF).
T - Температура воздуха - температура, измеренная на высоте 2 м над землей.
Td - Температура точки росы - температура, при понижении до которой содержащийся в воздухе водяной пар достигнет насыщения.
f - Относительная влажность воздуха - влажноcть воздуха, измеренная на высоте 2 м над землей.
Te - Эффективная температура - температура, которую ощущает одетый по сезону человек в тени. Характеристика душности погоды. При расчете учитывается влияние влажности воздуха и скорости ветра на теплоощущения человека.
Tes - Эффективная температура на солнце - температура, которую ощущает человек, с поправкой на солнечный нагрев. Характеристика знойности погоды. Зависит от высоты солнца над горизонтом, облачности и скорости ветра. Ночью, в пасмурную погоду, а также при ветре 12 м/с и более поправка равна нулю.
P - Атмосферное давление - приведенное к уровню моря атмосферное давление.
Po - Атмосферное давление - измеренное на уровне метеостанции атмосферное давление.
Tmin - Минимальная температура - минимум температуры воздуха на высоте 2 м над землей.
Tmax - Максимальная температура - максимум температуры воздуха на высоте 2 м над землей.
R - Количество осадков - Количество выпавших осадков за период времени, мм. При наведении курсора мыши на число - период времени, за который выпало указанное количество осадков.
R24 - Количество осадков - Количество выпавших осадков за 24 часа, мм.
S - Снежный покров - Высота снежного покрова, см. При наведении курсора мыши на число - состояние снежного покрова и степень покрытия местности в баллах.